DW5057 Weather Reports


Display with metric or nautical units.
time (UTC)temp
F
wind
direction
speed
MPH
gust
MPH
rain 1hr
in
rain 24hr
in
rain mn
in
humidity
%
barometer
mb
20260502193517 61 26 1.0 4.0 0.00 0.00 0.00 59 1011.8
20260502192517 60 53 1.0 3.0 0.00 0.00 0.00 61 1011.8
20260502191517 60 60 1.0 4.0 0.00 0.00 0.00 61 1011.9
20260502190558 60 19 1.0 2.0 0.00 0.00 0.00 62 1012.0
20260502185517 59 12 1.0 3.0 0.00 0.00 0.00 64 1012.3
20260502184517 59 229 1.0 2.0 0.00 0.00 0.00 64 1012.4
20260502183518 59 177 1.0 5.0 0.00 0.00 0.00 65 1012.5
20260502182518 58 307 1.0 3.0 0.00 0.00 0.00 66 1012.6
20260502181518 58 302 1.0 3.0 0.00 0.00 0.00 68 1012.8
20260502180538 58 269 1.0 3.0 0.00 0.00 0.00 68 1013.0
20260502170516 58 270 1.0 3.0 0.00 0.00 0.00 67 1012.8
20260502163516 57 265 1.0 3.0 0.00 0.00 0.00 69 1013.2
20260502162517 57 300 1.0 2.0 0.00 0.00 0.00 69 1013.3
20260502161517 57 294 1.0 2.0 0.00 0.00 0.00 69 1013.5
20260502160537 57 347 0.0 3.0 0.00 0.00 0.00 69 1013.6
20260502151518 55 332 1.0 2.0 0.00 0.00 0.00 74 1013.1
20260502150518 55 318 1.0 2.0 0.00 0.00 0.00 74 1013.3
20260502130517 56 6 1.0 2.0 0.00 0.00 0.00 72 1013.4
20260502123517 56 297 1.0 3.0 0.00 0.00 0.00 75 1013.4
20260502122518 55 323 1.0 3.0 0.00 0.00 0.00 76 1013.4
20260502121518 55 345 1.0 3.0 0.00 0.00 0.00 80 1013.6
20260502120538 55 301 0.0 2.0 0.00 0.00 0.00 82 1013.5
20260502115518 55 332 0.0 2.0 0.00 0.00 0.00 82 1013.4
20260502114538 54 304 0.0 2.0 0.00 0.00 0.00 83 1013.4
20260502113518 54 341 0.0 2.0 0.00 0.00 0.00 84 1013.4
20260502112516 54 308 0.0 2.0 0.00 0.00 0.00 85 1013.3
20260502111516 53 38 1.0 2.0 0.00 0.00 0.00 86 1013.2
20260502110516 53 318 0.0 2.0 0.00 0.00 0.00 86 1013.2
20260502105516 53 6 0.0 3.0 0.00 0.00 0.00 87 1013.2
20260502104516 52 15 0.0 2.0 0.00 0.00 0.00 88 1013.2
20260502103516 52 281 0.0 1.0 0.00 0.00 0.00 88 1013.2
20260502102517 52 351 0.0 2.0 0.00 0.00 0.00 87 1013.0
20260502101517 52 8 0.0 1.0 0.00 0.00 0.00 85 1012.8
20260502100537 52 16 0.0 1.0 0.00 0.00 0.00 84 1012.6
20260502090518 53 352 0.0 2.0 0.00 0.00 0.00 83 1012.7
20260502071516 54 243 0.0 2.0 0.00 0.00 0.00 81 1012.7
20260502070517 54 227 0.0 2.0 0.00 0.00 0.00 81 1012.9
20260502065517 54 196 0.0 1.0 0.00 0.00 0.00 80 1012.8
20260502064517 54 212 1.0 2.0 0.00 0.00 0.00 82 1012.9
20260502063517 54 199 1.0 2.0 0.00 0.00 0.00 84 1013.0
20260502062517 54 190 1.0 3.0 0.00 0.00 0.00 84 1013.0
20260502061518 54 175 1.0 3.0 0.00 0.00 0.00 84 1013.0
20260502060518 54 168 1.0 3.0 0.00 0.00 0.00 85 1013.2
20260502055538 54 172 1.0 2.0 0.00 0.00 0.00 85 1013.4
20260502054518 54 176 1.0 3.0 0.00 0.00 0.00 85 1013.4
20260502053518 53 170 1.0 2.0 0.00 0.00 0.00 85 1013.5
20260502052519 54 171 1.0 3.0 0.00 0.00 0.00 85 1013.7
20260502051516 54 148 1.0 3.0 0.00 0.00 0.00 84 1013.8
20260502050516 53 157 1.0 3.0 0.00 0.00 0.00 83 1013.7
20260502045516 53 145 1.0 4.0 0.00 0.00 0.00 84 1014.0
20260502044516 53 153 1.0 4.0 0.00 0.00 0.00 84 1013.9
20260502043516 53 144 1.0 4.0 0.00 0.00 0.00 83 1013.8
20260502042517 53 185 1.0 3.0 0.00 0.00 0.00 83 1013.7
20260502041517 53 141 1.0 4.0 0.00 0.00 0.00 83 1013.8
20260502040517 53 151 1.0 5.0 0.00 0.00 0.00 83 1013.9
20260502035517 53 141 1.0 4.0 0.00 0.00 0.00 84 1013.7
20260502034517 53 129 1.0 4.0 0.00 0.00 0.00 83 1013.6
20260502033518 53 150 1.0 3.0 0.00 0.00 0.00 84 1013.5
20260502032517 53 134 1.0 4.0 0.00 0.00 0.00 85 1013.5
20260502031516 53 177 1.0 4.0 0.00 0.00 0.00 84 1013.6
20260502030519 53 135 1.0 4.0 0.00 0.00 0.00 85 1013.6
20260502025536 53 220 1.0 3.0 0.00 0.00 0.00 85 1013.6
20260502024516 53 119 1.0 4.0 0.00 0.00 0.00 84 1013.9
20260502023517 53 134 1.0 4.0 0.00 0.00 0.00 85 1013.9
20260502022537 53 147 1.0 4.0 0.00 0.00 0.00 86 1014.0
20260502021517 53 148 1.0 3.0 0.00 0.00 0.00 86 1014.1
20260502020517 53 138 2.0 4.0 0.00 0.00 0.00 85 1014.1
20260502015517 53 131 1.0 5.0 0.00 0.00 0.00 85 1014.0
20260502014517 53 144 1.0 4.0 0.00 0.00 0.00 86 1014.0
20260502013517 53 255 1.0 3.0 0.00 0.00 0.00 85 1013.8
20260502012518 54 178 1.0 5.0 0.00 0.00 0.00 85 1013.8
20260502011518 54 168 1.0 4.0 0.00 0.00 0.00 85 1013.8
20260502010518 54 150 1.0 3.0 0.00 0.00 0.00 85 1013.8
20260502005518 54 160 1.0 4.0 0.00 0.00 0.00 84 1013.7
20260502004559 54 163 1.0 4.0 0.00 0.00 0.00 85 1013.6
20260502003535 54 174 1.0 3.0 0.00 0.00 0.00 84 1013.4
20260502002516 54 172 1.0 3.0 0.00 0.00 0.00 83 1013.2
20260502001516 54 157 1.0 4.0 0.00 0.00 0.00 83 1013.1
20260502000516 54 184 1.0 3.0 0.00 0.00 0.00 82 1013.0
20260501235517 54 182 1.0 3.0 0.00 0.00 0.00 81 1013.0
20260501234617 54 182 1.0 3.0 0.00 0.00 0.00 81 1012.8
20260501233516 55 214 1.0 4.0 0.00 0.00 0.00 80 1012.7
20260501232517 55 208 1.0 4.0 0.00 0.00 0.00 79 1012.6
20260501231517 55 211 1.0 3.0 0.00 0.00 0.00 78 1012.6
20260501230517 55 208 1.0 3.0 0.00 0.00 0.00 76 1012.6
20260501225517 55 212 1.0 3.0 0.00 0.00 0.00 75 1012.6
20260501224517 55 217 1.0 3.0 0.00 0.00 0.00 74 1012.5
20260501223538 55 226 2.0 5.0 0.00 0.00 0.00 74 1012.7
20260501222518 56 213 1.0 4.0 0.00 0.00 0.00 73 1012.8
20260501221518 56 265 1.0 4.0 0.00 0.00 0.00 73 1012.9
20260501220518 56 300 1.0 5.0 0.00 0.00 0.00 73 1013.2
20260501215518 56 220 1.0 4.0 0.00 0.00 0.00 72 1013.3
20260501214519 56 195 2.0 5.0 0.00 0.00 0.00 70 1013.2
20260501213516 57 184 2.0 5.0 0.00 0.00 0.00 68 1013.2
20260501212516 57 191 1.0 4.0 0.00 0.00 0.00 69 1013.2
20260501211516 57 171 2.0 3.0 0.00 0.00 0.00 69 1013.4
20260501210556 57 179 1.0 5.0 0.00 0.00 0.00 69 1013.5
20260501205516 57 171 1.0 4.0 0.00 0.00 0.00 68 1013.5
20260501204517 58 177 2.0 4.0 0.00 0.00 0.00 65 1013.3
20260501203516 58 145 1.0 3.0 0.00 0.00 0.00 64 1013.4
20260501202537 58 209 2.0 5.0 0.00 0.00 0.00 64 1013.5
20260501201517 59 206 1.0 5.0 0.00 0.00 0.00 61 1013.5
20260501200517 59 221 2.0 5.0 0.00 0.00 0.00 61 1013.6
20260501195517 59 228 1.0 3.0 0.00 0.00 0.00 61 1013.7
20260501194517 59 219 1.0 4.0 0.00 0.00 0.00 59 1013.8